Flag for China Weather past 2 weeks in Guilin, Guangxi, China

Now
84 °F

Scattered clouds.


Feels Like: 92 °F
Forecast: 72 / 90 °F
Wind: 8 mph from Southeast

Location: Guilin Airport

Current Time: Aug 4, 2015 at 11:26:59 AM

Latest Report: Aug 4, 2015 at 11:00 AM


Visibility: N/A

Pressure: 29.80 "Hg

Humidity: 74%

Dew point: 75 °F

Location of GuilinLocation

Historic Weather in Guilin — Graph

°F

Guilin temperature yesterday

Maximum temperature yesterday: 88 °F (at 3:00 PM)
Minimum temperature yesterday: 75 °F (at 12:00 AM)
Average temperature yesterday: 80 °F

Past Weeks' High & Low Weather Summary

 TemperatureHumidityPressure
High97 °F (Jul 20, 3:00 PM)100% (Jul 22, 7:00 AM)29.89 "Hg (Jul 22, 7:00 AM)
Low72 °F (Jul 29, 5:00 AM)47% (Jul 20, 3:00 PM)29.59 "Hg (Jul 20, 3:00 PM)
Average80 °F86%29.75 "Hg
* Reported Jul 20 10:00 AM — Aug 4 10:00 AM, Guilin, Weather by CustomWeather, © 2015

Note: Actual official high and low records may vary slightly from our data, if they occured in-between our weather recording intervals... More about our weather records

Advertising

Guilin weather history for previous 24 hours

 ConditionsComfort  
Time TempWeatherWind HumidityBarometerVisibility
10:00 AM
Tue, Aug 4
82 °FPassing clouds.6 mph74%29.83 "HgN/A
9:00 AM81 °FSunny.8 mph84%29.80 "Hg10 mi
8:00 AM77 °FLight rain. Partly sunny.6 mph94%29.80 "Hg5 mi
7:00 AM75 °FFog.6 mph94%29.80 "Hg3 mi
6:00 AM75 °FLight rain. Fog.8 mph100%29.80 "Hg2 mi
5:00 AM77 °FLight rain. Fog.8 mph94%29.80 "Hg2 mi
4:00 AM77 °FClear.3 mph94%29.80 "Hg4 mi
3:00 AM77 °FClear.6 mph94%29.83 "Hg4 mi
2:00 AM79 °FClear.3 mph89%29.83 "Hg4 mi
12:00 AM79 °FClear.3 mph89%29.83 "Hg10 mi
11:00 PM
Mon, Aug 3
79 °FClear.3 mph89%29.83 "Hg10 mi
10:00 PM81 °FClear.3 mph84%29.80 "Hg10 mi
9:00 PM81 °FPassing clouds.1 mph84%29.80 "HgN/A
8:00 PM81 °FPassing clouds.6 mph79%29.80 "HgN/A
7:00 PM84 °FSunny.8 mph70%29.77 "Hg10 mi
6:00 PM86 °FPassing clouds.6 mph66%29.77 "HgN/A
5:00 PM86 °FPassing clouds.10 mph62%29.80 "HgN/A
4:00 PM88 °FPassing clouds.13 mph62%29.80 "HgN/A
3:00 PM88 °FScattered clouds.8 mph62%29.83 "HgN/A
2:00 PM86 °FPassing clouds.8 mph70%29.83 "HgN/A
1:00 PM86 °FPassing clouds.3 mph75%29.86 "HgN/A
12:00 PM84 °FPassing clouds.6 mph74%29.86 "HgN/A
11:00 AM82 °FPassing clouds.3 mph79%29.86 "HgN/A
Weather by CustomWeather, © 2015

See weather overviewHow to use our weather pages